Regional Weather Roundup
Issued by NWS Upton, NY

Current Version | Previous Version | Graphics & Text | Print | Product List | Glossary Off
Versions: 1 2 3 4 5 6 7 8 9 10 11 12 13 14 15 16 17 18 19 20 21 22 23 24 25 26 27

000
ASUS41 KOKX 171809
RWROKX

Regional Weather Roundup
National Weather Service New York NY
100 PM EST SUN DEC 17 2017

Note: "FAIR" indicates few or no clouds below 12,000 feet with no
significant weather and/or obstructions to visibility.

NYZ071-072-176-178-NJZ106-104-171900-
New York City Metro Area

CITY           SKY/WX    TMP DP  RH WIND       PRES   REMARKS
Central Park   CLOUDY    37  23  56 CALM      30.28F
Bronx Bot Gard   N/A     36  23  60 N2        30.27F
Bronx Lehman C   N/A     34  23  64 E1          N/A
LaGuardia Arpt CLOUDY    36  22  56 CALM      30.26F
Queens College   N/A     36  25  64 N2          N/A
Kennedy Intl   PTSUNNY   36  24  62 CALM      30.27F
Breezy Point     N/A     36 N/A N/A N2          N/A
Brooklyn Coll    N/A     37  25  60 NE2         N/A
Staten Island    N/A     36  25  64 NW3         N/A
Newark/Liberty CLOUDY    38  24  57 CALM      30.26F
Teterboro      MOSUNNY   35  22  58 CALM      30.26F
$$

NYZ177-179-078>081-171900-
Long Island New York

CITY           SKY/WX    TMP DP  RH WIND       PRES   REMARKS
Jones Beach      N/A     34 N/A N/A CALM        N/A
Wantagh          N/A     34  23  64 N2          N/A
Matinecock Pt    N/A     32 N/A N/A NE5         N/A  WCI  27
Farmingdale    CLOUDY    33  22  63 E3        30.26F
MacArthur/ISP  CLOUDY    33  21  61 N7        30.25F WCI  27
Shirley        CLOUDY    33  22  63 NW8       30.27F WCI  26
Mt Sinai Harb    N/A    N/A N/A N/A NW5         N/A
Westhampton    CLOUDY    31  19  61 NW9       30.28F WCI  23
East Hampton   CLOUDY    31  17  56 W6        30.26F WCI  25
Southold         N/A     32  18  55 W3          N/A
Montauk          N/A     34  12  40 NW9       30.27S WCI  27
$$

NYZ052-065-067-171900-
Hudson Valley

CITY           SKY/WX    TMP DP  RH WIND       PRES   REMARKS
White Plains   CLOUDY    31  19  61 SE3       30.23F
Larchmont Harb   N/A     32 N/A N/A NE6         N/A  WCI  26
Croton On Huds   N/A     32 N/A N/A CALM        N/A
Somers           N/A     30  19  64 W1          N/A
Brewster         N/A     30  16  55 NW2         N/A
Newburgh       PTSUNNY   28  19  69 VRB6      30.25F WCI  22
Montgomery     CLOUDY    31  20  63 CALM      30.23F
Otisville        N/A     30  21  69 S2          N/A
Warwick          N/A     32  21  64 CALM        N/A
Suffern          N/A     32  21  64 W1          N/A
Poughkeepsie   CLOUDY    28  15  58 CALM      30.26F
Albany         MOSUNNY   26  12  55 NW10      30.28F WCI  16
$$

NJZ001-105-106-008-010-013-015-019>022-104-171900-
New Jersey

CITY           SKY/WX    TMP DP  RH WIND       PRES   REMARKS
Newark/Liberty CLOUDY    38  24  57 CALM      30.26F
Teterboro      MOSUNNY   35  22  58 CALM      30.26F
Caldwell       PTSUNNY   35  23  61 CALM      30.26F
Somerville     CLOUDY    38  26  62 MISG      30.24F
Linden         FAIR      37  23  56 CALM      30.26F
Perth Amboy      N/A     36 N/A N/A SE5         N/A  WCI  32
Sussex         PTSUNNY   32  21  64 CALM      30.23F
Andover          N/A     33  23  66 CALM      30.23F
Trenton        CLOUDY    39  27  62 CALM      30.24F
Millville      CLOUDY    46  30  53 CALM      30.23F
Atlantic City  CLOUDY    48  34  58 SE5       30.23F
Wrightstown    CLOUDY    43  30  61 NE5       30.21F
Toms River     CLOUDY    43  31  62 VRB3      30.24F
Belmar         MOSUNNY   39  30  70 E6        30.25F WCI  35
$$

PAZ047>061-062-071-171900-
Eastern Pennsylvania

CITY           SKY/WX    TMP DP  RH WIND       PRES   REMARKS
Philadelphia   CLOUDY    42  28  57 CALM      30.24F
Allentown      CLOUDY    35  24  64 N3        30.23F
Scranton       CLOUDY    31  23  72 CALM      30.20F
$$

CTZ002-004>006-009-010-012-RIZ004-006-007-MAZ004-011-015-171900-
Southern New England

 In CT

CITY           SKY/WX    TMP DP  RH WIND       PRES   REMARKS
Bradley Intl   PTSUNNY   28   8  43 NW10      30.25F WCI  19
Hartford       CLOUDY    29  12  49 NE5       30.27F WCI  24
Danbury        CLOUDY    30  16  56 W6        30.25F WCI  24
Wtrbury/Oxford CLOUDY    31  15  52 SW5       30.23S WCI  26
Norwalk Harbor   N/A    N/A N/A N/A NW3         N/A
Bridgeport     CLOUDY    31  17  56 NW3       30.27F
Meriden        CLOUDY    32   8  36 NW8       30.26S WCI  25
New Haven      PTSUNNY   32  15  49 W5        30.26F WCI  27
Chester        MOCLDY    32   9  37 NW5       30.24F WCI  27
Groton         PTSUNNY   32   9  38 NW7       30.26R WCI  26
Willimantic    MOSUNNY   29   7  39 N5        30.25F WCI  24

 In RI

CITY           SKY/WX    TMP DP  RH WIND       PRES   REMARKS
Providence     MOSUNNY   31   8  38 NW9       30.24F WCI  23
Block Island   MOSUNNY   32  10  40 W8        30.25S WCI  25
Westerly       PTSUNNY   32   6  33 NW6       30.26S WCI  26

In MA

CITY           SKY/WX    TMP DP  RH WIND       PRES   REMARKS
Boston         MOSUNNY   29   2  31 NW9       30.23F WCI  20
Worcester      SUNNY     24   1  36 W9        30.17F WCI  14
Westfield      MOSUNNY   28   8  43 NW9       30.23F WCI  19
Provincetown   SUNNY     28  14  55 NW15      30.23F WCI  16
Nantucket      SUNNY     28  11  48 NW8       30.23F WCI  20
$$

ANZ330-335-338-340-345-350-353-355-171900-
Coastal Marine Observations


STATION/POSITION TIME  SKY/WX   TEMP    WIND        PRES    VSBY  WAVE
                                AIR SEA DIR/SP/G                  HT/PER
                 (UTC)          (F)     (DEG/KT/KT) (MB)    (MI)  (FT/S)
NY Harb Entrance 1750            38 50   50/  2/  6 1024.3          1/ 6
20 S Fire Island 1750            37 50   20/  4/  6 1024.8          2/ 6
15 E Barnegat Li 1730               49                N/A           2/ 5
Hudson Canyon    1650            43 54   20/  4/  6 1024.7          3/ 6
Kings Point      1736            34 42   40/  2/  4 1025.9
Execution Rocks  1730            35      70/  2/  8   N/A
Western LI Sound NOT AVBL
Central LI Sound NOT AVBL
Robbins Reef     1742            36     360/  4/  5 1025.3
$$


>>>>>>>>>>>>>>>>>>>>>>>>>>>> KEY <<<<<<<<<<<<<<<<<<<<<<<<<<<
>                                                          <
>     SKY/WX - Sky Condition/Present Weather               <
>     TMP    - Temperature in Fahrenheit                   <
>     DP     - Dew Point in Fahrenheit                     <
>     RH     - Relative Humidity in Percent                <
>     WIND   - Direction (from) and Speed in MPH           <
>     PRES   - Mean Sea Level Pressure (inches of Hg)      <
>     WCI    - Wind Chill Index                            <
>     VSB    - Visibility in Miles                         <
>     HX     - Heat Index                                  <
>     TC     - Temperature in Celsius                      <
>     VRB    - Varibale Wind Direction                     <
>                                                          <
>>>>>>>>>>>>>>>>>>>>>>>>>>>> KEY <<<<<<<<<<<<<<<<<<<<<<<<<<<




USA.gov is the U.S. government's official web portal to all federal, state and local government web resources and services.